ELFIN-B (43616 NORAD) Tracking and Keplerian Element Data

This shows tracking and keplerian element data for the satellite.

Feedback or suggestion? Click here.




ElementValue
Catalog43616
NameELFIN-B
Epoch Orbit995
Epoch Day323.38997461
Epoch Year2018
RAAN276.2771
Inclination93.0307
Eccentricity0.0020306
Argument of Perigee51.2441
Mean Anonmoly309.0836
Mean Motion15.36657676
Decay Rate-6E-08
L11 43616U 18070D 18323.38997461 -.00000006 00000-0 00000+0 0 9996
L22 43616 93.0307 276.2771 0020306 51.2441 309.0836 15.36657676 9958

Live tracking and technical data element details for ELFIN-B (NORAD 43616). ELFIN-B can be tracked NOW for your location showing map with azimuth and elevation plus other details from your city location.

Track the satellite on the map from your city or location and see movement details for azimuth, elevation, latitude, longitude, range, height, and movement on the map or in text.







IsCatalogInMostPopularTable: catalog: 43616, numindb: 18
Update: records affected: 1



GetName: 43616 ELFIN-B

Hit Count: updated at: Tue, 20 Nov 2018 12:23:10 GMT